Time,TemperatureF,DewpointF,PressureIn,WindDirection,WindDirectionDegrees,WindSpeedMPH,WindSpeedGustMPH,Humidity,HourlyPrecipIn,Conditions,Clouds,dailyrainin,SoftwareType,DateUTC
2013-04-29 00:02:00,71.0,14.0,29.70,SSW,207,9.0,13.0,11,0.00,,,0.00,,2013-04-29 06:02:00,
2013-04-29 00:11:00,71.0,14.0,29.70,SSW,207,9.0,13.0,11,0.00,,,0.00,,2013-04-29 06:11:00,
2013-04-29 00:21:00,70.0,15.0,29.70,SSW,208,9.0,10.0,12,0.00,,,0.00,,2013-04-29 06:21:00,
2013-04-29 00:32:00,69.0,14.0,29.71,SSW,206,9.0,12.0,12,0.00,,,0.00,,2013-04-29 06:32:00,
2013-04-29 00:42:00,69.0,14.0,29.71,SSW,206,9.0,12.0,12,0.00,,,0.00,,2013-04-29 06:42:00,
2013-04-29 00:52:00,69.0,14.0,29.71,SSW,202,8.0,13.0,12,0.00,,,0.00,,2013-04-29 06:52:00,
2013-04-29 01:01:00,69.0,14.0,29.71,SSW,196,8.0,11.0,12,0.00,,,0.00,,2013-04-29 07:01:00,
2013-04-29 01:11:00,69.0,14.0,29.71,SSW,196,8.0,11.0,12,0.00,,,0.00,,2013-04-29 07:11:00,
2013-04-29 01:21:00,69.0,16.0,29.71,SW,217,9.0,11.0,13,0.00,,,0.00,,2013-04-29 07:21:00,
2013-04-29 01:32:00,69.0,16.0,29.71,SW,236,9.0,11.0,13,0.00,,,0.00,,2013-04-29 07:32:00,
2013-04-29 01:42:00,69.0,16.0,29.71,SW,236,9.0,11.0,13,0.00,,,0.00,,2013-04-29 07:42:00,
2013-04-29 01:52:00,68.0,17.0,29.71,SW,215,8.0,10.0,14,0.00,,,0.00,,2013-04-29 07:52:00,
2013-04-29 02:03:00,68.0,17.0,29.70,SSW,209,7.0,9.0,14,0.00,,,0.00,,2013-04-29 08:03:00,
2013-04-29 02:11:00,68.0,17.0,29.70,SSW,209,7.0,9.0,14,0.00,,,0.00,,2013-04-29 08:11:00,
2013-04-29 02:21:00,67.0,16.0,29.70,SSW,202,11.0,13.0,14,0.00,,,0.00,,2013-04-29 08:21:00,
2013-04-29 02:32:00,68.0,17.0,29.70,SW,218,10.0,12.0,14,0.00,,,0.00,,2013-04-29 08:32:00,
2013-04-29 02:42:00,68.0,17.0,29.70,SW,218,10.0,12.0,14,0.00,,,0.00,,2013-04-29 08:42:00,
2013-04-29 02:51:00,68.0,15.0,29.70,SW,226,9.0,11.0,13,0.00,,,0.00,,2013-04-29 08:51:00,
2013-04-29 03:01:00,68.0,15.0,29.70,SSW,212,10.0,12.0,13,0.00,,,0.00,,2013-04-29 09:01:00,
2013-04-29 03:12:00,68.0,15.0,29.70,SSW,212,10.0,12.0,13,0.00,,,0.00,,2013-04-29 09:12:00,
2013-04-29 03:21:00,67.0,18.0,29.70,SSW,203,13.0,16.0,15,0.00,,,0.00,,2013-04-29 09:21:00,
2013-04-29 03:33:00,67.0,15.0,29.70,SSW,206,11.0,14.0,13,0.00,,,0.00,,2013-04-29 09:33:00,
2013-04-29 03:42:00,67.0,15.0,29.70,SSW,206,11.0,14.0,13,0.00,,,0.00,,2013-04-29 09:42:00,
2013-04-29 03:52:00,67.0,15.0,29.69,SSW,210,11.0,12.0,13,0.00,,,0.00,,2013-04-29 09:52:00,
2013-04-29 04:02:00,67.0,16.0,29.69,SSW,207,10.0,12.0,14,0.00,,,0.00,,2013-04-29 10:02:00,
2013-04-29 04:12:00,67.0,16.0,29.69,SSW,207,10.0,12.0,14,0.00,,,0.00,,2013-04-29 10:12:00,
2013-04-29 04:23:00,67.0,18.0,29.69,SSW,209,10.0,13.0,15,0.00,,,0.00,,2013-04-29 10:23:00,
2013-04-29 04:32:00,67.0,18.0,29.69,SSW,210,9.0,10.0,15,0.00,,,0.00,,2013-04-29 10:32:00,
2013-04-29 04:42:00,67.0,18.0,29.69,SSW,210,9.0,10.0,15,0.00,,,0.00,,2013-04-29 10:42:00,
2013-04-29 04:52:00,67.0,19.0,29.69,SSW,209,11.0,14.0,16,0.00,,,0.00,,2013-04-29 10:52:00,
2013-04-29 05:02:00,66.0,19.0,29.69,SSW,205,11.0,14.0,16,0.00,,,0.00,,2013-04-29 11:02:00,
2013-04-29 05:12:00,66.0,19.0,29.69,SSW,205,11.0,14.0,16,0.00,,,0.00,,2013-04-29 11:12:00,
2013-04-29 05:21:00,64.0,20.0,29.69,SSW,205,13.0,17.0,18,0.00,,,0.00,,2013-04-29 11:21:00,
2013-04-29 05:32:00,62.0,19.0,29.70,SSW,202,16.0,18.0,19,0.00,,,0.00,,2013-04-29 11:32:00,
2013-04-29 05:42:00,62.0,19.0,29.70,SSW,202,16.0,18.0,19,0.00,,,0.00,,2013-04-29 11:42:00,
2013-04-29 05:52:00,63.0,20.0,29.69,SSW,196,19.0,21.0,19,0.00,,,0.00,,2013-04-29 11:52:00,
2013-04-29 06:01:00,64.0,21.0,29.70,SSW,208,17.0,20.0,19,0.00,,,0.00,,2013-04-29 12:01:00,
2013-04-29 06:12:00,64.0,21.0,29.70,SSW,208,17.0,20.0,19,0.00,,,0.00,,2013-04-29 12:12:00,
2013-04-29 06:22:00,63.0,20.0,29.70,SSW,207,18.0,20.0,19,0.00,,,0.00,,2013-04-29 12:22:00,
2013-04-29 06:32:00,61.0,20.0,29.70,SSW,205,19.0,22.0,20,0.00,,,0.00,,2013-04-29 12:32:00,
2013-04-29 06:42:00,61.0,20.0,29.70,SSW,205,19.0,22.0,20,0.00,,,0.00,,2013-04-29 12:42:00,
2013-04-29 06:52:00,61.0,20.0,29.70,SSW,201,18.0,22.0,20,0.00,,,0.00,,2013-04-29 12:52:00,
2013-04-29 07:01:00,61.0,20.0,29.71,SSW,202,17.0,19.0,20,0.00,,,0.00,,2013-04-29 13:01:00,
2013-04-29 07:11:00,61.0,20.0,29.71,SSW,202,17.0,19.0,20,0.00,,,0.00,,2013-04-29 13:11:00,
2013-04-29 07:21:00,61.0,22.0,29.72,SSW,198,17.0,21.0,22,0.00,,,0.00,,2013-04-29 13:21:00,
2013-04-29 07:31:00,61.0,23.0,29.72,SSW,198,15.0,18.0,23,0.00,,,0.00,,2013-04-29 13:31:00,
2013-04-29 07:42:00,61.0,23.0,29.72,SSW,198,15.0,18.0,23,0.00,,,0.00,,2013-04-29 13:42:00,
2013-04-29 07:52:00,61.0,22.0,29.72,SSW,196,15.0,17.0,22,0.00,,,0.00,,2013-04-29 13:52:00,
2013-04-29 08:02:00,61.0,22.0,29.72,SSW,204,12.0,17.0,22,0.00,,,0.00,,2013-04-29 14:02:00,
2013-04-29 08:11:00,61.0,22.0,29.72,SSW,204,12.0,17.0,22,0.00,,,0.00,,2013-04-29 14:11:00,
2013-04-29 08:21:00,61.0,23.0,29.72,SSW,212,13.0,15.0,23,0.00,,,0.00,,2013-04-29 14:21:00,
2013-04-29 08:32:00,61.0,23.0,29.72,SSW,209,12.0,16.0,23,0.00,,,0.00,,2013-04-29 14:32:00,
2013-04-29 08:42:00,61.0,23.0,29.72,SSW,209,12.0,16.0,23,0.00,,,0.00,,2013-04-29 14:42:00,
2013-04-29 08:52:00,62.0,24.0,29.72,SSW,213,10.0,14.0,23,0.00,,,0.00,,2013-04-29 14:52:00,
2013-04-29 09:01:00,63.0,24.0,29.73,SW,216,9.0,15.0,22,0.00,,,0.00,,2013-04-29 15:01:00,
2013-04-29 09:12:00,63.0,24.0,29.73,SW,216,9.0,15.0,22,0.00,,,0.00,,2013-04-29 15:12:00,
2013-04-29 09:21:00,64.0,21.0,29.73,SSW,211,8.0,12.0,19,0.00,,,0.00,,2013-04-29 15:21:00,
2013-04-29 09:33:00,65.0,20.0,29.73,SW,230,11.0,14.0,18,0.00,,,0.00,,2013-04-29 15:33:00,
2013-04-29 09:42:00,65.0,20.0,29.73,SW,230,11.0,14.0,18,0.00,,,0.00,,2013-04-29 15:42:00,
2013-04-29 09:52:00,66.0,19.0,29.73,SW,223,9.0,12.0,16,0.00,,,0.00,,2013-04-29 15:52:00,
2013-04-29 10:02:00,66.0,20.0,29.73,SW,215,9.0,12.0,17,0.00,,,0.00,,2013-04-29 16:02:00,
2013-04-29 10:12:00,66.0,20.0,29.73,SW,215,9.0,12.0,17,0.00,,,0.00,,2013-04-29 16:12:00,
2013-04-29 10:23:00,67.0,19.0,29.73,SW,227,7.0,13.0,16,0.00,,,0.00,,2013-04-29 16:23:00,
2013-04-29 10:33:00,69.0,18.0,29.73,SSW,194,7.0,10.0,14,0.00,,,0.00,,2013-04-29 16:33:00,
2013-04-29 10:42:00,69.0,18.0,29.73,SSW,194,7.0,10.0,14,0.00,,,0.00,,2013-04-29 16:42:00,
2013-04-29 10:52:00,70.0,20.0,29.73,WSW,240,7.0,12.0,15,0.00,,,0.00,,2013-04-29 16:52:00,
2013-04-29 11:02:00,70.0,20.0,29.73,West,278,6.0,12.0,15,0.00,,,0.00,,2013-04-29 17:02:00,
2013-04-29 11:12:00,70.0,20.0,29.73,West,278,6.0,12.0,15,0.00,,,0.00,,2013-04-29 17:12:00,
2013-04-29 11:22:00,71.0,18.0,29.73,SW,217,6.0,10.0,13,0.00,,,0.00,,2013-04-29 17:22:00,
2013-04-29 11:32:00,72.0,15.0,29.73,WNW,290,4.0,9.0,11,0.00,,,0.00,,2013-04-29 17:32:00,
2013-04-29 11:42:00,72.0,15.0,29.73,WNW,290,4.0,9.0,11,0.00,,,0.00,,2013-04-29 17:42:00,
2013-04-29 11:52:00,73.0,15.0,29.73,West,264,3.0,10.0,11,0.00,,,0.00,,2013-04-29 17:52:00,
2013-04-29 12:01:00,74.0,14.0,29.72,WSW,254,3.0,9.0,10,0.00,,,0.00,,2013-04-29 18:01:00,
2013-04-29 12:13:00,74.0,14.0,29.72,WSW,254,3.0,9.0,10,0.00,,,0.00,,2013-04-29 18:13:00,
2013-04-29 12:22:00,75.0,12.0,29.72,NNW,330,3.0,13.0,9,0.00,,,0.00,,2013-04-29 18:22:00,
2013-04-29 12:32:00,76.0,10.0,29.72,NW,316,8.0,12.0,8,0.00,,,0.00,,2013-04-29 18:32:00,
2013-04-29 12:42:00,76.0,10.0,29.72,NW,316,8.0,12.0,8,0.00,,,0.00,,2013-04-29 18:42:00,
2013-04-29 12:51:00,77.0,11.0,29.71,NNW,329,5.0,12.0,8,0.00,,,0.00,,2013-04-29 18:51:00,
2013-04-29 13:01:00,78.0,9.0,29.70,WNW,287,5.0,15.0,7,0.00,,,0.00,,2013-04-29 19:01:00,
2013-04-29 13:11:00,78.0,9.0,29.70,WNW,287,5.0,15.0,7,0.00,,,0.00,,2013-04-29 19:11:00,
2013-04-29 13:21:00,78.0,9.0,29.70,West,272,10.0,15.0,7,0.00,,,0.00,,2013-04-29 19:21:00,
2013-04-29 13:31:00,79.0,10.0,29.69,WNW,288,9.0,15.0,7,0.00,,,0.00,,2013-04-29 19:31:00,
2013-04-29 13:41:00,79.0,10.0,29.69,WNW,288,9.0,15.0,7,0.00,,,0.00,,2013-04-29 19:41:00,
2013-04-29 13:52:00,80.0,10.0,29.68,SW,221,6.0,11.0,7,0.00,,,0.00,,2013-04-29 19:52:00,
2013-04-29 14:02:00,80.0,7.0,29.68,West,280,8.0,17.0,6,0.00,,,0.00,,2013-04-29 20:02:00,
2013-04-29 14:11:00,80.0,7.0,29.68,West,280,8.0,17.0,6,0.00,,,0.00,,2013-04-29 20:11:00,
2013-04-29 14:21:00,79.0,6.0,29.67,WNW,288,14.0,18.0,6,0.00,,,0.00,,2013-04-29 20:21:00,
2013-04-29 14:32:00,80.0,3.0,29.66,NW,321,5.0,18.0,5,0.00,,,0.00,,2013-04-29 20:32:00,
2013-04-29 14:42:00,80.0,3.0,29.66,NW,321,5.0,18.0,5,0.00,,,0.00,,2013-04-29 20:42:00,
2013-04-29 14:52:00,81.0,4.0,29.65,SSW,213,9.0,17.0,5,0.00,,,0.00,,2013-04-29 20:52:00,
2013-04-29 15:01:00,81.0,4.0,29.64,SW,223,10.0,27.0,5,0.00,,,0.00,,2013-04-29 21:01:00,
2013-04-29 15:11:00,81.0,4.0,29.64,SW,223,10.0,27.0,5,0.00,,,0.00,,2013-04-29 21:11:00,
2013-04-29 15:21:00,82.0,4.0,29.63,West,267,12.0,19.0,5,0.00,,,0.00,,2013-04-29 21:21:00,
2013-04-29 15:33:00,85.0,2.0,29.63,WNW,290,8.0,15.0,4,0.00,,,0.00,,2013-04-29 21:33:00,
2013-04-29 15:42:00,85.0,2.0,29.63,WNW,290,8.0,15.0,4,0.00,,,0.00,,2013-04-29 21:42:00,
2013-04-29 15:53:00,82.0,0.0,29.62,West,275,5.0,24.0,4,0.00,,,0.00,,2013-04-29 21:53:00,
2013-04-29 16:02:00,83.0,0.0,29.60,WSW,247,7.0,18.0,4,0.00,,,0.00,,2013-04-29 22:02:00,
2013-04-29 16:13:00,83.0,0.0,29.60,WSW,247,7.0,18.0,4,0.00,,,0.00,,2013-04-29 22:13:00,
2013-04-29 16:23:00,83.0,5.0,29.59,SW,228,13.0,23.0,5,0.00,,,0.00,,2013-04-29 22:23:00,
2013-04-29 16:32:00,83.0,0.0,29.59,WNW,298,9.0,26.0,4,0.00,,,0.00,,2013-04-29 22:32:00,
2013-04-29 16:42:00,83.0,0.0,29.59,WNW,298,9.0,26.0,4,0.00,,,0.00,,2013-04-29 22:42:00,
2013-04-29 16:52:00,84.0,1.0,29.59,SSW,208,8.0,18.0,4,0.00,,,0.00,,2013-04-29 22:52:00,
2013-04-29 17:02:00,83.0,0.0,29.58,WSW,238,10.0,21.0,4,0.00,,,0.00,,2013-04-29 23:02:00,
2013-04-29 17:11:00,83.0,0.0,29.58,WSW,238,10.0,21.0,4,0.00,,,0.00,,2013-04-29 23:11:00,
2013-04-29 17:22:00,84.0,1.0,29.58,WNW,288,6.0,13.0,4,0.00,,,0.00,,2013-04-29 23:22:00,
2013-04-29 17:32:00,83.0,0.0,29.57,SSW,201,12.0,23.0,4,0.00,,,0.00,,2013-04-29 23:32:00,
2013-04-29 17:42:00,83.0,0.0,29.57,SSW,201,12.0,23.0,4,0.00,,,0.00,,2013-04-29 23:42:00,
2013-04-29 17:52:00,84.0,1.0,29.57,SW,218,7.0,19.0,4,0.00,,,0.00,,2013-04-29 23:52:00,
2013-04-29 18:01:00,84.0,-5.0,29.56,WSW,238,18.0,22.0,3,0.00,,,0.00,,2013-04-30 00:01:00,
2013-04-29 18:11:00,84.0,-5.0,29.56,WSW,238,18.0,22.0,3,0.00,,,0.00,,2013-04-30 00:11:00,
2013-04-29 18:21:00,83.0,-6.0,29.56,West,277,14.0,24.0,3,0.00,,,0.00,,2013-04-30 00:21:00,
2013-04-29 18:32:00,85.0,-4.0,29.56,North,5,8.0,21.0,3,0.00,,,0.00,,2013-04-30 00:32:00,
2013-04-29 18:41:00,85.0,-4.0,29.56,North,5,8.0,21.0,3,0.00,,,0.00,,2013-04-30 00:41:00,
2013-04-29 18:51:00,83.0,-6.0,29.56,WNW,296,11.0,19.0,3,0.00,,,0.00,,2013-04-30 00:51:00,
2013-04-29 19:02:00,84.0,-5.0,29.56,WNW,285,13.0,17.0,3,0.00,,,0.00,,2013-04-30 01:02:00,
2013-04-29 19:11:00,84.0,-5.0,29.56,WNW,285,13.0,17.0,3,0.00,,,0.00,,2013-04-30 01:11:00,
2013-04-29 19:21:00,83.0,0.0,29.56,West,269,9.0,13.0,4,0.00,,,0.00,,2013-04-30 01:21:00,
2013-04-29 19:32:00,82.0,0.0,29.56,West,263,13.0,17.0,4,0.00,,,0.00,,2013-04-30 01:32:00,
2013-04-29 19:41:00,82.0,0.0,29.56,West,263,13.0,17.0,4,0.00,,,0.00,,2013-04-30 01:41:00,
2013-04-29 19:51:00,81.0,4.0,29.55,West,273,16.0,20.0,5,0.00,,,0.00,,2013-04-30 01:51:00,
2013-04-29 20:01:00,81.0,4.0,29.56,West,278,17.0,21.0,5,0.00,,,0.00,,2013-04-30 02:01:00,
2013-04-29 20:11:00,81.0,4.0,29.56,West,278,17.0,21.0,5,0.00,,,0.00,,2013-04-30 02:11:00,
2013-04-29 20:21:00,80.0,3.0,29.56,West,260,16.0,19.0,5,0.00,,,0.00,,2013-04-30 02:21:00,
2013-04-29 20:31:00,80.0,3.0,29.56,West,263,18.0,20.0,5,0.00,,,0.00,,2013-04-30 02:31:00,
2013-04-29 20:41:00,80.0,3.0,29.56,West,263,18.0,20.0,5,0.00,,,0.00,,2013-04-30 02:41:00,
2013-04-29 20:51:00,80.0,3.0,29.57,West,272,19.0,22.0,5,0.00,,,0.00,,2013-04-30 02:51:00,
2013-04-29 21:01:00,79.0,2.0,29.57,West,281,18.0,22.0,5,0.00,,,0.00,,2013-04-30 03:01:00,
2013-04-29 21:11:00,79.0,2.0,29.57,West,281,18.0,22.0,5,0.00,,,0.00,,2013-04-30 03:11:00,
2013-04-29 21:21:00,78.0,2.0,29.57,WNW,289,15.0,17.0,5,0.00,,,0.00,,2013-04-30 03:21:00,
2013-04-29 21:33:00,77.0,5.0,29.58,West,279,15.0,18.0,6,0.00,,,0.00,,2013-04-30 03:33:00,
2013-04-29 21:42:00,77.0,5.0,29.58,West,279,15.0,18.0,6,0.00,,,0.00,,2013-04-30 03:42:00,
2013-04-29 21:52:00,77.0,5.0,29.58,WNW,289,15.0,19.0,6,0.00,,,0.00,,2013-04-30 03:52:00,
2013-04-29 22:02:00,77.0,5.0,29.58,WNW,284,15.0,20.0,6,0.00,,,0.00,,2013-04-30 04:02:00,
2013-04-29 22:12:00,77.0,5.0,29.58,WNW,284,15.0,20.0,6,0.00,,,0.00,,2013-04-30 04:12:00,
2013-04-29 22:22:00,76.0,4.0,29.58,WNW,282,13.0,18.0,6,0.00,,,0.00,,2013-04-30 04:22:00,
2013-04-29 22:32:00,75.0,3.0,29.58,West,276,11.0,16.0,6,0.00,,,0.00,,2013-04-30 04:32:00,
2013-04-29 22:42:00,75.0,3.0,29.58,West,276,11.0,16.0,6,0.00,,,0.00,,2013-04-30 04:42:00,
2013-04-29 22:52:00,75.0,3.0,29.58,West,281,11.0,15.0,6,0.00,,,0.00,,2013-04-30 04:52:00,
2013-04-29 23:02:00,76.0,4.0,29.58,West,271,14.0,22.0,6,0.00,,,0.00,,2013-04-30 05:02:00,
2013-04-29 23:12:00,76.0,4.0,29.58,West,271,14.0,22.0,6,0.00,,,0.00,,2013-04-30 05:12:00,
2013-04-29 23:22:00,75.0,3.0,29.58,West,275,9.0,20.0,6,0.00,,,0.00,,2013-04-30 05:22:00,
2013-04-29 23:31:00,75.0,3.0,29.58,West,269,8.0,12.0,6,0.00,,,0.00,,2013-04-30 05:31:00,
2013-04-29 23:42:00,75.0,3.0,29.58,West,269,8.0,12.0,6,0.00,,,0.00,,2013-04-30 05:42:00,
2013-04-29 23:51:00,75.0,3.0,29.59,West,276,7.0,13.0,6,0.00,,,0.00,,2013-04-30 05:51:00,